Time,TemperatureF,DewpointF,PressureIn,WindDirection,WindDirectionDegrees,WindSpeedMPH,WindSpeedGustMPH,Humidity,HourlyPrecipIn,Conditions,Clouds,dailyrainin,SoftwareType,DateUTC
2015-09-04 00:07:00,72.9,64.9,29.87,SSE,157,1.1,-999.0,76,-99.99,,,0.00,Acu-Link.com,2015-09-04 05:07:00,
2015-09-04 00:22:00,72.1,64.5,29.87,SSE,157,2.2,-999.0,77,-99.99,,,0.00,Acu-Link.com,2015-09-04 05:22:00,
2015-09-04 00:37:00,72.1,64.5,29.87,SSE,157,1.7,-999.0,77,-99.99,,,0.00,Acu-Link.com,2015-09-04 05:37:00,
2015-09-04 00:52:00,72.9,64.9,29.88,SSE,157,1.1,-999.0,76,-99.99,,,0.00,Acu-Link.com,2015-09-04 05:52:00,
2015-09-04 01:07:00,72.5,64.5,29.88,SSE,157,0.0,-999.0,76,-99.99,,,0.00,Acu-Link.com,2015-09-04 06:07:00,
2015-09-04 01:23:00,71.6,64.4,29.88,SSE,157,1.1,-999.0,78,-99.99,,,0.00,Acu-Link.com,2015-09-04 06:23:00,
2015-09-04 01:38:00,71.1,64.6,29.88,SE,135,0.0,-999.0,80,-99.99,,,0.00,Acu-Link.com,2015-09-04 06:38:00,
2015-09-04 01:53:00,70.3,64.5,29.88,SE,135,1.7,-999.0,82,-99.99,,,0.00,Acu-Link.com,2015-09-04 06:53:00,
2015-09-04 02:08:00,70.2,64.8,29.88,SE,135,0.0,-999.0,83,-99.99,,,0.00,Acu-Link.com,2015-09-04 07:08:00,
2015-09-04 02:23:00,70.5,65.1,29.88,SSE,157,0.0,-999.0,83,-99.99,,,0.00,Acu-Link.com,2015-09-04 07:23:00,
2015-09-04 02:38:00,71.8,65.6,29.88,SE,135,2.7,-999.0,81,-99.99,,,0.00,Acu-Link.com,2015-09-04 07:38:00,
2015-09-04 02:54:00,73.8,66.1,29.88,South,180,2.2,-999.0,77,-99.99,,,0.00,Acu-Link.com,2015-09-04 07:54:00,
2015-09-04 03:09:00,74.1,66.0,29.88,SSW,202,5.8,-999.0,76,-99.99,,,0.00,Acu-Link.com,2015-09-04 08:09:00,
2015-09-04 03:24:00,74.1,66.0,29.87,South,180,3.2,-999.0,76,-99.99,,,0.00,Acu-Link.com,2015-09-04 08:24:00,
2015-09-04 03:39:00,73.6,65.9,29.88,SSW,202,2.2,-999.0,77,-99.99,,,0.00,Acu-Link.com,2015-09-04 08:39:00,
2015-09-04 03:55:00,73.8,66.1,29.87,SSE,157,8.3,-999.0,77,-99.99,,,0.00,Acu-Link.com,2015-09-04 08:55:00,
2015-09-04 04:10:00,73.9,66.2,29.87,SSE,157,6.8,-999.0,77,-99.99,,,0.00,Acu-Link.com,2015-09-04 09:10:00,
2015-09-04 04:25:00,73.6,65.9,29.88,South,180,1.1,-999.0,77,-99.99,,,0.00,Acu-Link.com,2015-09-04 09:25:00,
2015-09-04 04:40:00,73.4,65.7,29.88,SSE,157,2.2,-999.0,77,-99.99,,,0.00,Acu-Link.com,2015-09-04 09:40:00,
2015-09-04 04:55:00,73.2,65.5,29.87,South,180,6.3,-999.0,77,-99.99,,,0.00,Acu-Link.com,2015-09-04 09:55:00,
2015-09-04 05:10:00,73.0,65.4,29.87,South,180,5.8,-999.0,77,-99.99,,,0.00,Acu-Link.com,2015-09-04 10:10:00,
2015-09-04 05:25:00,72.9,65.6,29.88,SSW,202,6.3,-999.0,78,-99.99,,,0.00,Acu-Link.com,2015-09-04 10:25:00,
2015-09-04 05:40:00,72.5,65.2,29.89,SSE,157,1.7,-999.0,78,-99.99,,,0.00,Acu-Link.com,2015-09-04 10:40:00,
2015-09-04 05:56:00,72.1,65.2,29.89,SSE,157,1.1,-999.0,79,-99.99,,,0.00,Acu-Link.com,2015-09-04 10:56:00,
2015-09-04 06:11:00,71.6,65.5,29.90,South,180,1.7,-999.0,81,-99.99,,,0.00,Acu-Link.com,2015-09-04 11:11:00,
2015-09-04 06:42:00,71.1,65.3,29.91,SE,135,1.1,-999.0,82,-99.99,,,0.00,Acu-Link.com,2015-09-04 11:42:00,
2015-09-04 06:57:00,70.7,64.9,29.92,ESE,112,2.2,-999.0,82,-99.99,,,0.00,Acu-Link.com,2015-09-04 11:57:00,
2015-09-04 07:12:00,70.7,65.3,29.93,ESE,112,0.0,-999.0,83,-99.99,,,0.00,Acu-Link.com,2015-09-04 12:12:00,
2015-09-04 07:43:00,73.6,66.7,29.94,ESE,112,2.2,-999.0,79,-99.99,,,0.00,Acu-Link.com,2015-09-04 12:43:00,
2015-09-04 07:58:00,73.8,66.5,29.94,ESE,112,2.2,-999.0,78,-99.99,,,0.00,Acu-Link.com,2015-09-04 12:58:00,
2015-09-04 08:13:00,73.8,66.5,29.94,SE,135,2.2,-999.0,78,-99.99,,,0.00,Acu-Link.com,2015-09-04 13:13:00,
2015-09-04 08:28:00,73.8,66.5,29.95,SSE,157,1.7,-999.0,78,-99.99,,,0.00,Acu-Link.com,2015-09-04 13:28:00,
2015-09-04 08:43:00,73.8,66.5,29.96,SSE,157,2.2,-999.0,78,-99.99,,,0.00,Acu-Link.com,2015-09-04 13:43:00,
2015-09-04 08:59:00,73.9,66.6,29.96,South,180,0.0,-999.0,78,-99.99,,,0.00,Acu-Link.com,2015-09-04 13:59:00,
2015-09-04 09:14:00,75.2,67.5,29.96,South,180,2.2,-999.0,77,-99.99,,,0.00,Acu-Link.com,2015-09-04 14:14:00,
2015-09-04 09:29:00,76.5,68.0,29.96,South,180,1.7,-999.0,75,-99.99,,,0.00,Acu-Link.com,2015-09-04 14:29:00,
2015-09-04 09:44:00,77.7,67.9,29.95,SSE,157,5.8,-999.0,72,-99.99,,,0.00,Acu-Link.com,2015-09-04 14:44:00,
2015-09-04 09:59:00,79.7,67.8,29.95,SSW,202,7.8,-999.0,67,-99.99,,,0.00,Acu-Link.com,2015-09-04 14:59:00,
2015-09-04 10:14:00,80.1,67.7,29.95,SSE,157,8.9,-999.0,66,-99.99,,,0.00,Acu-Link.com,2015-09-04 15:14:00,
2015-09-04 10:30:00,81.3,67.9,29.94,South,180,6.8,-999.0,64,-99.99,,,0.00,Acu-Link.com,2015-09-04 15:30:00,
2015-09-04 10:45:00,81.5,68.1,29.94,SSE,157,4.2,-999.0,64,-99.99,,,0.00,Acu-Link.com,2015-09-04 15:45:00,
2015-09-04 11:00:00,81.5,67.7,29.94,SE,135,2.2,-999.0,63,-99.99,,,0.00,Acu-Link.com,2015-09-04 16:00:00,
2015-09-04 11:15:00,81.3,67.5,29.93,South,180,2.2,-999.0,63,-99.99,,,0.00,Acu-Link.com,2015-09-04 16:15:00,
2015-09-04 11:30:00,82.8,68.9,29.92,SE,135,0.0,-999.0,63,-99.99,,,0.00,Acu-Link.com,2015-09-04 16:30:00,
2015-09-04 11:45:00,85.5,70.0,29.92,South,180,1.7,-999.0,60,-99.99,,,0.00,Acu-Link.com,2015-09-04 16:45:00,
2015-09-04 12:01:00,85.6,68.1,29.92,SSE,157,3.7,-999.0,56,-99.99,,,0.00,Acu-Link.com,2015-09-04 17:01:00,
2015-09-04 12:16:00,85.3,67.8,29.92,South,180,8.3,-999.0,56,-99.99,,,0.00,Acu-Link.com,2015-09-04 17:16:00,
2015-09-04 12:31:00,85.8,68.3,29.91,South,180,6.8,-999.0,56,-99.99,,,0.00,Acu-Link.com,2015-09-04 17:31:00,
2015-09-04 12:46:00,88.0,67.0,29.90,SSW,202,10.9,-999.0,50,-99.99,,,0.00,Acu-Link.com,2015-09-04 17:46:00,
2015-09-04 13:01:00,89.4,67.7,29.90,South,180,14.0,-999.0,49,-99.99,,,0.00,Acu-Link.com,2015-09-04 18:01:00,